STARLINK-34208, 64740

Orbit data source: Space-Track

STARLINK-34208, 64740 is a payload satellite owned by SpaceX/Seattle (US) in LEO that was launched on Wed, 02 Jul 2025 UTC via an FALCON 9 launch vehicle from the Air Force Eastern Test Range (AFETR). Payload-class satellites include a variety of spacecraft equipped with specific instruments for various scientific and technological missions. These include communications satellites like Starlink; space stations such as the ISS; scientific satellites like the Hubble; Earth observation satellites from companies like Planet Labs, Umbra, and HawkEye 360; GPS; miniature CubeSats for education and research; and military/defense satellites.

Not visible in the next 10 days
Identifier
64740, 2025-144S
Orbit
LEO
Last TLE update
15 hours ago
Origin
Manufacturer
SpaceX/Seattle
Mission
Operational spacecraft
Bus & Motor
STARLINK V2MO, Unknown motor
Mass
575 kg wet, ~530 kg dry
Launch date (UTC)
2025-07-02 (1 week ago)
Launch vehicle
FALCON 9
Launch site
Air Force Eastern Test Range (AFETR)
Object type
Payload
Rocket body
Debris
Shape & HBR
Unknown
Radar Cross Section
RCS unknown

Expand to show TLE details & history

TLE from 15 hours ago
0 STARLINK-34208
1 64740U 25144S   25191.66668981 -.01228397  00000-0 -49149-2 0  9998
2 64740  53.1541 231.7122 0000793  82.2263  17.1319 15.88230430  2572
Epoch: 2025-07-10T16:00Z
TLE epoch observation values (Epoch: 2025-07-10T16:00:01.999Z)
Latitude
52.30246°
Longitude
168.26236°
Altitude
313.054 km
Speed
7.727 km/s
True Right ascension
22h 28m 24s
True Declination
52° 07' 29"
Sunlit
Object was in daylight at epoch
Visualization orbit readout
Latitude
-15.53444°
Longitude
47.83839°
Altitude
316.103 km
Speed
7.719 km/s
Apparent Right ascension
11h 27m 12s
Apparent Declination
-42° 31' 11"
Sunlit
Object is in full shadow
Visualization observer readout
Local Sidereal Time
18:53:59
Azimuth
243.361° WSW
Elevation
-39.99°
Doppler factor
1
Orbital elements
Apogee altitude
308.038 km
Perigee altitude
306.978 km
Semi-major axis
6,685.645 km
Eccentricity
0.00008
Inclination
53.1541°
RAAN
231.7122°
Arg. of periapsis
82.2263°
True anomaly
Unknown
Mean anomaly
17.1319°
Eccentric anomaly
Unknown
Mean motion
3.97034 °/min
Orbital period
90.67 mins
BSTAR
-0.0049149
Loading maneuver chart data...
Loading SW <> Apogee altitude chart data...
Loading historical data...
Loading historical data...
Loading historical data...
Loading historical data...
Loading historical data...
Loading historical data...
Loading historical data...

STARLINK-34208 Visibility

Observer location: undefined°, undefined°

STARLINK-34208 is likely not visible in the next few days
Span
Click to sort rows by Start time (UTC) header in descending order
Start Az.
Max El. time (UTC)
Max El. Az.
Max El.
End time (UTC)
End Az.
|